Location: Izdebno
(52.6670°N, 16.2170°E)
Time: 09:00:44
(UTC+02:00)

A-11 Canister half - Pass Details

Date: 24 February 2024
Orbit: 1513 x 1686 km, 47.2° (Epoch: 24 April)

Event Time Altitude Azimuth Distance (km) Brightness Sun altitude
Exits shadow 02:03:49 35° 120° (ESE) 2,476 10.0 -41.1°
Drops below altitude 10° 02:10:28 10° 83° (E) 3,879 11.5 -40.5°
Sets 02:13:49 0° 76° (ENE) 4,844 12.3 -40.1°
